Regional Weather Roundup
Issued by NWS

Home | Current Version | Previous Version | Text Only | Print | Product List | Glossary Off
Versions: 1 2 3 4 5 6 7 8 9 10 11 12 13 14 15 16 17 18 19 20 21 22 23 24 25 26 27 28 29 30 31 32 33 34 35 36 37 38 39 40 41 42 43 44 45 46 47 48 49 50

073
ASUS44 KJAN 230803
RWRMS

MISSISSIPPI HOURLY WEATHER ROUNDUP
NATIONAL WEATHER SERVICE JACKSON MS
200 AM CST SUN NOV 23 2014

NOTE: "FAIR: INDICATES FEW OR NO CLOUDS BELOW 12,000 FEET WITH NO
SIGNIFICANT WEATHER AND/OR OBSTRUCTIONS TO VISIBILITY.

MSZ001>002-007>008-010>013-018>021-025>028-034>036-230900-
NORTHWEST MISSISSIPPI

CITY           SKY/WX    TMP DP  RH WIND       PRES   REMARKS
CLARKSDALE     MOCLDY    55  54  94 SE8       29.85F
CLEVELAND      CLOUDY    58  55  89 SE12      29.84F
GREENWOOD      CLOUDY    61  55  81 SE12G20   29.84F
GREENVILLE     CLOUDY    58  54  86 SE8       29.83F
GRENADA        CLOUDY    59  54  82 SE12G17   29.87F
OLIVE BRANCH   CLOUDY    57  55  94 SE14      29.88F
OXFORD         CLOUDY    57  54  88 SE9       29.90F
TUNICA         MOSUNNY   57  52  82 SE10      29.85F
$$

MSZ003>006-009-014>017-022>024-029>033-037>039-230900-
NORTHEAST MISSISSIPPI

CITY           SKY/WX    TMP DP  RH WIND       PRES   REMARKS
COLUMBUS AFB   CLOUDY    59  53  79 SE14      29.91F
CORINTH        CLOUDY    61  52  72 SE14      29.91F
GOLDN TRIANGLE CLOUDY    59  52  77 SE18      29.90F
STARKVILLE     CLOUDY    57  54  88 SE7       29.92F
TUPELO         CLOUDY    58  54  86 MISG      29.91F FOG
$$

MSZ040-058-230900-
CENTRAL MISSISSIPPI

CITY           SKY/WX    TMP DP  RH WIND       PRES   REMARKS
JACKSON INTL   CLOUDY    61  58  90 SE12      29.86F
JACKSON HAWKNS CLOUDY    61  57  87 SE15G21   29.85F
MERIDIAN KEY   CLOUDY    58  57  97 E5        29.91F
MERIDIAN NAS   CLOUDY    58  56  93 E12       29.93F FOG
RAYMOND        CLOUDY    63  57  82 SE10G20   29.85F
VICKSBURG      CLOUDY    62  58  86 SE16      29.80F
$$

MSZ059>079-230900-
SOUTH MISSISSIPPI

CITY           SKY/WX    TMP DP  RH WIND       PRES   REMARKS
BROOKHAVEN     CLOUDY    61  59  94 SE7       29.88S
HATTIESBURG    CLOUDY    61  59  93 E7        29.88F
MCCOMB         CLOUDY    61  59  93 E9        29.84F
NATCHEZ        CLOUDY    63  57  82 SE16      29.80F
PINE BELT      CLOUDY    61  55  82 E8        29.89F
$$

MSZ080>082-230900-
COASTAL MISSISSIPPI

CITY           SKY/WX    TMP DP  RH WIND       PRES   REMARKS
BILOXI         CLOUDY    62  62 100 E10       29.84F
PASCAGOULA     CLOUDY    63  61  93 NE5       29.86F
GULFPORT       CLOUDY    62  61  96 E9        29.84F
$$



USA.gov is the U.S. government's official web portal to all federal, state and local government web resources and services.